Year,Month,Day,Hour,Minute,Value (Times are PST for temperature in C)
2018,02,23,00,00,-2.40
2018,02,23,00,01,-2.40
2018,02,23,00,02,-2.40
2018,02,23,00,03,-2.40
2018,02,23,00,04,-2.40
2018,02,23,00,05,-2.40
2018,02,23,00,06,-2.40
2018,02,23,00,07,-2.40
2018,02,23,00,08,-2.50
2018,02,23,00,09,-2.50
2018,02,23,00,10,-2.50
2018,02,23,00,11,-2.50
2018,02,23,00,12,-2.50
2018,02,23,00,13,-2.50
2018,02,23,00,14,-2.50
2018,02,23,00,15,-2.50
2018,02,23,00,16,-2.50
2018,02,23,00,17,-2.50
2018,02,23,00,18,-2.50
2018,02,23,00,19,-2.50
2018,02,23,00,20,-2.50
2018,02,23,00,21,-2.50
2018,02,23,00,22,-2.50
2018,02,23,00,23,-2.50
2018,02,23,00,24,-2.60
2018,02,23,00,25,-2.60
2018,02,23,00,26,-2.60
2018,02,23,00,27,-2.60
2018,02,23,00,28,-2.60
2018,02,23,00,29,-2.60
2018,02,23,00,30,-2.60
2018,02,23,00,31,-2.60
2018,02,23,00,32,-2.70
2018,02,23,00,33,-2.70
2018,02,23,00,34,-2.70
2018,02,23,00,35,-2.70
2018,02,23,00,36,-2.70
2018,02,23,00,37,-2.70
2018,02,23,00,38,-2.70
2018,02,23,00,39,-2.70
2018,02,23,00,40,-2.70
2018,02,23,00,41,-2.80
2018,02,23,00,42,-2.80
2018,02,23,00,43,-2.80
2018,02,23,00,44,-2.80
2018,02,23,00,45,-2.80
2018,02,23,00,46,-2.80
2018,02,23,00,47,-2.80
2018,02,23,00,48,-2.80
2018,02,23,00,49,-2.80
2018,02,23,00,50,-2.80
2018,02,23,00,51,-2.80
2018,02,23,00,52,-2.80
2018,02,23,00,53,-2.80
2018,02,23,00,54,-2.80
2018,02,23,00,55,-2.80
2018,02,23,00,56,-2.80
2018,02,23,00,57,-2.80
2018,02,23,00,58,-2.80
2018,02,23,00,59,-2.80
2018,02,23,01,00,-2.80
2018,02,23,01,01,-2.80
2018,02,23,01,02,-2.80
2018,02,23,01,03,-2.80
2018,02,23,01,04,-2.90
2018,02,23,01,05,-2.90
2018,02,23,01,06,-2.90
2018,02,23,01,07,-2.90
2018,02,23,01,08,-2.90
2018,02,23,01,09,-2.90
2018,02,23,01,10,-2.90
2018,02,23,01,11,-2.90
2018,02,23,01,12,-2.90
2018,02,23,01,13,-3.00
2018,02,23,01,14,-3.00
2018,02,23,01,15,-3.00
2018,02,23,01,16,-3.00
2018,02,23,01,17,-3.00
2018,02,23,01,18,-3.00
2018,02,23,01,19,-3.00
2018,02,23,01,20,-3.00
2018,02,23,01,21,-3.00
2018,02,23,01,22,-3.00
2018,02,23,01,23,-3.00
2018,02,23,01,24,-3.00
2018,02,23,01,25,-3.10
2018,02,23,01,26,-3.10
2018,02,23,01,27,-3.10
2018,02,23,01,28,-3.10
2018,02,23,01,29,-3.10
2018,02,23,01,30,-3.10
2018,02,23,01,31,-3.10
2018,02,23,01,32,-3.10
2018,02,23,01,33,-3.10
2018,02,23,01,34,-3.10
2018,02,23,01,35,-3.10
2018,02,23,01,36,-3.10
2018,02,23,01,37,-3.10
2018,02,23,01,38,-3.10
2018,02,23,01,39,-3.10
2018,02,23,01,40,-3.10
2018,02,23,01,41,-3.10
2018,02,23,01,42,-3.10
2018,02,23,01,43,-3.10
2018,02,23,01,44,-3.10
2018,02,23,01,45,-3.10
2018,02,23,01,46,-3.10
2018,02,23,01,47,-3.10
2018,02,23,01,48,-3.10
2018,02,23,01,49,-3.10
2018,02,23,01,50,-3.10
2018,02,23,01,51,-3.10
2018,02,23,01,52,-3.10
2018,02,23,01,53,-3.10
2018,02,23,01,54,-3.10
2018,02,23,01,55,-3.10
2018,02,23,01,56,-3.20
2018,02,23,01,57,-3.20
2018,02,23,01,58,-3.20
2018,02,23,01,59,-3.10
2018,02,23,02,00,-3.10
2018,02,23,02,01,-3.10
2018,02,23,02,02,-3.20
2018,02,23,02,03,-3.10
2018,02,23,02,04,-3.10
2018,02,23,02,05,-3.10
2018,02,23,02,06,-3.10
2018,02,23,02,07,-3.10
2018,02,23,02,08,-3.10
2018,02,23,02,09,-3.10
2018,02,23,02,10,-3.10
2018,02,23,02,11,-3.10
2018,02,23,02,12,-3.10
2018,02,23,02,13,-3.10
2018,02,23,02,14,-3.10
2018,02,23,02,15,-3.10
2018,02,23,02,16,-3.10
2018,02,23,02,17,-3.20
2018,02,23,02,18,-3.20
2018,02,23,02,19,-3.20
2018,02,23,02,20,-3.20
2018,02,23,02,21,-3.20
2018,02,23,02,22,-3.30
2018,02,23,02,23,-3.30
2018,02,23,02,24,-3.30
2018,02,23,02,25,-3.30
2018,02,23,02,26,-3.30
2018,02,23,02,27,-3.30
2018,02,23,02,28,-3.30
2018,02,23,02,29,-3.30
2018,02,23,02,30,-3.30
2018,02,23,02,31,-3.30
2018,02,23,02,32,-3.40
2018,02,23,02,33,-3.40
2018,02,23,02,34,-3.40
2018,02,23,02,35,-3.40
2018,02,23,02,36,-3.40
2018,02,23,02,37,-3.40
2018,02,23,02,38,-3.50
2018,02,23,02,39,-3.50
2018,02,23,02,40,-3.50
2018,02,23,02,41,-3.50
2018,02,23,02,42,-3.50
2018,02,23,02,43,-3.40
2018,02,23,02,44,-3.40
2018,02,23,02,45,-3.30
2018,02,23,02,46,-3.30
2018,02,23,02,47,-3.30
2018,02,23,02,48,-3.30
2018,02,23,02,49,-3.30
2018,02,23,02,50,-3.30
2018,02,23,02,51,-3.30
2018,02,23,02,52,-3.30
2018,02,23,02,53,-3.30
2018,02,23,02,54,-3.30
2018,02,23,02,55,-3.30
2018,02,23,02,56,-3.40
2018,02,23,02,57,-3.30
2018,02,23,02,58,-3.40
2018,02,23,02,59,-3.40
2018,02,23,03,00,-3.40
2018,02,23,03,01,-3.40
2018,02,23,03,02,-3.30
2018,02,23,03,03,-3.30
2018,02,23,03,04,-3.30
2018,02,23,03,05,-3.30
2018,02,23,03,06,-3.40
2018,02,23,03,07,-3.40
2018,02,23,03,08,-3.40
2018,02,23,03,09,-3.40
2018,02,23,03,10,-3.40
2018,02,23,03,11,-3.40
2018,02,23,03,12,-3.40
2018,02,23,03,13,-3.30
2018,02,23,03,14,-3.30
2018,02,23,03,15,-3.20
2018,02,23,03,16,-3.20
2018,02,23,03,17,-3.20
2018,02,23,03,18,-3.20
2018,02,23,03,19,-3.20
2018,02,23,03,20,-3.20
2018,02,23,03,21,-3.20
2018,02,23,03,22,-3.20
2018,02,23,03,23,-3.20
2018,02,23,03,24,-3.30
2018,02,23,03,25,-3.30
2018,02,23,03,26,-3.20
2018,02,23,03,27,-3.20
2018,02,23,03,28,-3.20
2018,02,23,03,29,-3.30
2018,02,23,03,30,-3.30
2018,02,23,03,31,-3.30
2018,02,23,03,32,-3.30
2018,02,23,03,33,-3.30
2018,02,23,03,34,-3.30
2018,02,23,03,35,-3.30
2018,02,23,03,36,-3.30
2018,02,23,03,37,-3.30
2018,02,23,03,38,-3.30
2018,02,23,03,39,-3.20
2018,02,23,03,40,-3.00
2018,02,23,03,41,-2.90
2018,02,23,03,42,-2.80
2018,02,23,03,43,-2.80
2018,02,23,03,44,-2.80
2018,02,23,03,45,-2.80
2018,02,23,03,46,-2.80
2018,02,23,03,47,-2.80
2018,02,23,03,48,-2.80
2018,02,23,03,49,-2.80
2018,02,23,03,50,-2.80
2018,02,23,03,51,-2.80
2018,02,23,03,52,-2.80
2018,02,23,03,53,-2.80
2018,02,23,03,54,-2.90
2018,02,23,03,55,-3.00
2018,02,23,03,56,-3.00
2018,02,23,03,57,-3.10
2018,02,23,03,58,-3.10
2018,02,23,03,59,-3.10
2018,02,23,04,00,-3.10
2018,02,23,04,01,-3.10
2018,02,23,04,02,-3.10
2018,02,23,04,03,-3.00
2018,02,23,04,04,-3.00
2018,02,23,04,05,-3.00
2018,02,23,04,06,-3.00
2018,02,23,04,07,-3.00
2018,02,23,04,08,-3.00
2018,02,23,04,09,-2.90
2018,02,23,04,10,-2.80
2018,02,23,04,11,-2.80
2018,02,23,04,12,-2.70
2018,02,23,04,13,-2.60
2018,02,23,04,14,-2.60
2018,02,23,04,15,-2.50
2018,02,23,04,16,-2.50
2018,02,23,04,17,-2.50
2018,02,23,04,18,-2.30
2018,02,23,04,19,-2.10
2018,02,23,04,20,-2.10
2018,02,23,04,21,-2.10
2018,02,23,04,22,-2.10
2018,02,23,04,23,-2.10
2018,02,23,04,24,-2.10
2018,02,23,04,25,-2.10
2018,02,23,04,26,-2.00
2018,02,23,04,27,-2.00
2018,02,23,04,28,-2.10
2018,02,23,04,29,-2.00
2018,02,23,04,30,-2.00
2018,02,23,04,31,-2.00
2018,02,23,04,32,-2.00
2018,02,23,04,33,-2.00
2018,02,23,04,34,-1.90
2018,02,23,04,35,-1.90
2018,02,23,04,36,-1.90
2018,02,23,04,37,-1.80
2018,02,23,04,38,-1.80
2018,02,23,04,39,-1.70
2018,02,23,04,40,-1.70
2018,02,23,04,41,-1.70
2018,02,23,04,42,-1.50
2018,02,23,04,43,-1.40
2018,02,23,04,44,-1.40
2018,02,23,04,45,-1.40
2018,02,23,04,46,-1.40
2018,02,23,04,47,-1.40
2018,02,23,04,48,-1.30
2018,02,23,04,49,-1.20
2018,02,23,04,50,-1.10
2018,02,23,04,51,-1.10
2018,02,23,04,52,-1.10
2018,02,23,04,53,-0.90
2018,02,23,04,54,-0.90
2018,02,23,04,55,-0.90
2018,02,23,04,56,-0.90
2018,02,23,04,57,-0.80
2018,02,23,04,58,-0.70
2018,02,23,04,59,-0.70
2018,02,23,05,00,-0.60
2018,02,23,05,01,-0.60
2018,02,23,05,02,-0.60
2018,02,23,05,03,-0.60
2018,02,23,05,04,-0.70
2018,02,23,05,05,-0.80
2018,02,23,05,06,-0.90
2018,02,23,05,07,-0.90
2018,02,23,05,08,-0.90
2018,02,23,05,09,-0.90
2018,02,23,05,10,-0.90
2018,02,23,05,11,-0.50
2018,02,23,05,12,-0.30
2018,02,23,05,13,-0.20
2018,02,23,05,14,-0.10
2018,02,23,05,15,-0.10
2018,02,23,05,16,-0.10
2018,02,23,05,17,-0.10
2018,02,23,05,18,-0.10
2018,02,23,05,19,-0.10
2018,02,23,05,20,-0.10
2018,02,23,05,21,0.00
2018,02,23,05,22,0.10
2018,02,23,05,23,0.10
2018,02,23,05,24,0.10
2018,02,23,05,25,0.10
2018,02,23,05,26,0.10
2018,02,23,05,27,0.10
2018,02,23,05,28,0.10
2018,02,23,05,29,0.10
2018,02,23,05,30,0.20
2018,02,23,05,31,0.20
2018,02,23,05,32,0.30
2018,02,23,05,33,0.30
2018,02,23,05,34,0.40
2018,02,23,05,35,0.40
2018,02,23,05,36,0.50
2018,02,23,05,37,0.50
2018,02,23,05,38,0.60
2018,02,23,05,39,0.80
2018,02,23,05,40,0.80
2018,02,23,05,41,0.90
2018,02,23,05,42,0.90
2018,02,23,05,43,1.00
2018,02,23,05,44,1.00
2018,02,23,05,45,1.10
2018,02,23,05,46,1.20
2018,02,23,05,47,1.30
2018,02,23,05,48,1.30
2018,02,23,05,49,1.40
2018,02,23,05,50,1.40
2018,02,23,05,51,1.40
2018,02,23,05,52,1.50
2018,02,23,05,53,1.50
2018,02,23,05,54,1.50
2018,02,23,05,55,1.50
2018,02,23,05,56,1.50
2018,02,23,05,57,1.60
2018,02,23,05,58,1.60
2018,02,23,05,59,1.60
2018,02,23,06,00,1.60
2018,02,23,06,01,1.70
2018,02,23,06,02,1.70
2018,02,23,06,03,1.80
2018,02,23,06,04,1.80
2018,02,23,06,05,1.80
2018,02,23,06,06,1.80
2018,02,23,06,07,1.80
2018,02,23,06,08,1.80
2018,02,23,06,09,1.80
2018,02,23,06,10,1.80
2018,02,23,06,11,1.80
2018,02,23,06,12,1.80
2018,02,23,06,13,1.80
2018,02,23,06,14,1.80
2018,02,23,06,15,1.80
2018,02,23,06,16,1.80
2018,02,23,06,17,1.80
2018,02,23,06,18,1.80
2018,02,23,06,19,1.80
2018,02,23,06,20,1.80
2018,02,23,06,21,1.80
2018,02,23,06,22,1.80
2018,02,23,06,23,1.90
2018,02,23,06,24,1.90
2018,02,23,06,25,2.00
2018,02,23,06,26,2.00
2018,02,23,06,27,2.00
2018,02,23,06,28,2.00
2018,02,23,06,29,2.00
2018,02,23,06,30,2.00
2018,02,23,06,31,2.00
2018,02,23,06,32,2.00
2018,02,23,06,33,2.00
2018,02,23,06,34,2.00
2018,02,23,06,35,2.10
2018,02,23,06,36,2.10
2018,02,23,06,37,2.10
2018,02,23,06,38,2.20
2018,02,23,06,39,2.20
2018,02,23,06,40,2.20
2018,02,23,06,41,2.20
2018,02,23,06,42,2.20
2018,02,23,06,43,2.20
2018,02,23,06,44,2.20
2018,02,23,06,45,2.20
2018,02,23,06,46,2.20
2018,02,23,06,47,2.20
2018,02,23,06,48,2.20
2018,02,23,06,49,2.20
2018,02,23,06,50,2.20
2018,02,23,06,51,2.20
2018,02,23,06,52,2.20
2018,02,23,06,53,2.20
2018,02,23,06,54,2.20
2018,02,23,06,55,2.20
2018,02,23,06,56,2.20
2018,02,23,06,57,2.20
2018,02,23,06,58,2.20
2018,02,23,06,59,2.20
2018,02,23,07,00,2.20
2018,02,23,07,01,2.20
2018,02,23,07,02,2.30
2018,02,23,07,03,2.30
2018,02,23,07,04,2.30
2018,02,23,07,05,2.30
2018,02,23,07,06,2.30
2018,02,23,07,07,2.30
2018,02,23,07,08,2.30
2018,02,23,07,09,2.30
2018,02,23,07,10,2.30
2018,02,23,07,11,2.30
2018,02,23,07,12,2.30
2018,02,23,07,13,2.30
2018,02,23,07,14,2.30
2018,02,23,07,15,2.30
2018,02,23,07,16,2.30
2018,02,23,07,17,2.40
2018,02,23,07,18,2.40
2018,02,23,07,19,2.30
2018,02,23,07,20,2.30
2018,02,23,07,21,2.30
2018,02,23,07,22,2.30
2018,02,23,07,23,2.40
2018,02,23,07,24,2.40
2018,02,23,07,25,2.40
2018,02,23,07,26,2.40
2018,02,23,07,27,2.40
2018,02,23,07,28,2.40
2018,02,23,07,29,2.40
2018,02,23,07,30,2.40
2018,02,23,07,31,2.40
2018,02,23,07,32,2.40
2018,02,23,07,33,2.40
2018,02,23,07,34,2.30
2018,02,23,07,35,2.30
2018,02,23,07,36,2.30
2018,02,23,07,37,2.30
2018,02,23,07,38,2.30
2018,02,23,07,39,2.40
2018,02,23,07,40,2.40
2018,02,23,07,41,2.40
2018,02,23,07,42,2.40
2018,02,23,07,43,2.40
2018,02,23,07,44,2.40
2018,02,23,07,45,2.40
2018,02,23,07,46,2.50
2018,02,23,07,47,2.50
2018,02,23,07,48,2.50
2018,02,23,07,49,2.50
2018,02,23,07,50,2.50
2018,02,23,07,51,2.50
2018,02,23,07,52,2.50
2018,02,23,07,53,2.50
2018,02,23,07,54,2.50
2018,02,23,07,55,2.50
2018,02,23,07,56,2.50
2018,02,23,07,57,2.50
2018,02,23,07,58,2.50
2018,02,23,07,59,2.50
2018,02,23,08,00,2.50
2018,02,23,08,01,2.50
2018,02,23,08,02,2.50
2018,02,23,08,03,2.60
2018,02,23,08,04,2.60
2018,02,23,08,05,2.60
2018,02,23,08,06,2.60
2018,02,23,08,07,2.60
2018,02,23,08,08,2.60
2018,02,23,08,09,2.60
2018,02,23,08,10,2.60
2018,02,23,08,11,2.60
2018,02,23,08,12,2.50
2018,02,23,08,13,2.50
2018,02,23,08,14,2.50
2018,02,23,08,15,2.50
2018,02,23,08,16,2.60
2018,02,23,08,17,2.60
2018,02,23,08,18,2.60
2018,02,23,08,19,2.50
2018,02,23,08,20,2.50
2018,02,23,08,21,2.40
2018,02,23,08,22,2.50
2018,02,23,08,23,2.50
2018,02,23,08,24,2.50
2018,02,23,08,25,2.50
2018,02,23,08,26,2.50
2018,02,23,08,27,2.50
2018,02,23,08,28,2.50
2018,02,23,08,29,2.50
2018,02,23,08,30,2.50
2018,02,23,08,31,2.50
2018,02,23,08,32,2.50
2018,02,23,08,33,2.50
2018,02,23,08,34,2.50
2018,02,23,08,35,2.60
2018,02,23,08,36,2.60
2018,02,23,08,37,2.50
2018,02,23,08,38,2.50
2018,02,23,08,39,2.60
2018,02,23,08,40,2.60
2018,02,23,08,41,2.60
2018,02,23,08,42,2.60
2018,02,23,08,43,2.60
2018,02,23,08,44,2.50
2018,02,23,08,45,2.50
2018,02,23,08,46,2.50
2018,02,23,08,47,2.50
2018,02,23,08,48,2.50
2018,02,23,08,49,2.50
2018,02,23,08,50,2.50
2018,02,23,08,51,2.50
2018,02,23,08,52,2.50
2018,02,23,08,53,2.50
2018,02,23,08,54,2.50
2018,02,23,08,55,2.50
2018,02,23,08,56,2.60
2018,02,23,08,57,2.50
2018,02,23,08,58,2.50
2018,02,23,08,59,2.50
2018,02,23,09,00,2.50
2018,02,23,09,01,2.40
2018,02,23,09,02,2.40
2018,02,23,09,03,2.50
2018,02,23,09,04,2.50
2018,02,23,09,05,2.50
2018,02,23,09,06,2.50
2018,02,23,09,07,2.50
2018,02,23,09,08,2.50
2018,02,23,09,09,2.50
2018,02,23,09,10,2.50
2018,02,23,09,11,2.60
2018,02,23,09,12,2.60
2018,02,23,09,13,2.60
2018,02,23,09,14,2.60
2018,02,23,09,15,2.60
2018,02,23,09,16,2.60
2018,02,23,09,17,2.60
2018,02,23,09,18,2.60
2018,02,23,09,19,2.60
2018,02,23,09,20,2.70
2018,02,23,09,21,2.70
2018,02,23,09,22,2.70
2018,02,23,09,23,2.70
2018,02,23,09,24,2.70
2018,02,23,09,25,2.70
2018,02,23,09,26,2.70
2018,02,23,09,27,2.70
2018,02,23,09,28,2.80
2018,02,23,09,29,2.90
2018,02,23,09,30,2.80
2018,02,23,09,31,2.90
2018,02,23,09,32,2.80
2018,02,23,09,33,2.70
2018,02,23,09,34,2.70
2018,02,23,09,35,2.70
2018,02,23,09,36,2.70
2018,02,23,09,37,2.60
2018,02,23,09,38,2.60
2018,02,23,09,39,2.60
2018,02,23,09,40,2.70
2018,02,23,09,41,2.70
2018,02,23,09,42,2.70
2018,02,23,09,43,2.80
2018,02,23,09,44,2.80
2018,02,23,09,45,2.80
2018,02,23,09,46,2.70
2018,02,23,09,47,2.70
2018,02,23,09,48,2.70
2018,02,23,09,49,2.70
2018,02,23,09,50,2.70
2018,02,23,09,51,2.70
2018,02,23,09,52,2.70
2018,02,23,09,53,2.70
2018,02,23,09,54,2.70
2018,02,23,09,55,2.70
2018,02,23,09,56,2.70
2018,02,23,09,57,2.70
2018,02,23,09,58,2.70
2018,02,23,09,59,2.70
2018,02,23,10,00,2.70
2018,02,23,10,01,2.70
2018,02,23,10,02,2.70
2018,02,23,10,03,2.70
2018,02,23,10,04,2.70
2018,02,23,10,05,2.70
2018,02,23,10,06,2.70
2018,02,23,10,07,2.70
2018,02,23,10,08,2.70
2018,02,23,10,09,2.70
2018,02,23,10,10,2.60
2018,02,23,10,11,2.50
2018,02,23,10,12,2.50
2018,02,23,10,13,2.50
2018,02,23,10,14,2.50
2018,02,23,10,15,2.60
2018,02,23,10,16,2.70
2018,02,23,10,17,2.70
2018,02,23,10,18,2.60
2018,02,23,10,19,2.50
2018,02,23,10,20,2.40
2018,02,23,10,21,2.40
2018,02,23,10,22,2.30
2018,02,23,10,23,2.30
2018,02,23,10,24,2.30
2018,02,23,10,25,2.20
2018,02,23,10,26,2.30
2018,02,23,10,27,2.30
2018,02,23,10,28,2.30
2018,02,23,10,29,2.20
2018,02,23,10,30,2.20
2018,02,23,10,31,2.20
2018,02,23,10,32,2.20
2018,02,23,10,33,2.20
2018,02,23,10,34,2.20
2018,02,23,10,35,2.20
2018,02,23,10,36,2.10
2018,02,23,10,37,2.10
2018,02,23,10,38,2.10
2018,02,23,10,39,2.10
2018,02,23,10,40,2.20
2018,02,23,10,41,2.20
2018,02,23,10,42,2.20
2018,02,23,10,43,2.20
2018,02,23,10,44,2.20
2018,02,23,10,45,2.20
2018,02,23,10,46,2.20
2018,02,23,10,47,2.20
2018,02,23,10,48,2.20
2018,02,23,10,49,2.20
2018,02,23,10,50,2.20
2018,02,23,10,51,2.20
2018,02,23,10,52,2.20
2018,02,23,10,53,2.20
2018,02,23,10,54,2.20
2018,02,23,10,55,2.20
2018,02,23,10,56,2.20
2018,02,23,10,57,2.20
2018,02,23,10,58,2.30
2018,02,23,10,59,2.30
2018,02,23,11,00,2.30
2018,02,23,11,01,2.30
2018,02,23,11,02,2.30
2018,02,23,11,03,2.30
2018,02,23,11,04,2.40
2018,02,23,11,05,2.40
2018,02,23,11,06,2.40
2018,02,23,11,07,2.40
2018,02,23,11,08,2.40
2018,02,23,11,09,2.50
2018,02,23,11,10,2.60
2018,02,23,11,11,2.70
2018,02,23,11,12,2.70
2018,02,23,11,13,2.70
2018,02,23,11,14,2.70
2018,02,23,11,15,2.70
2018,02,23,11,16,2.70
2018,02,23,11,17,2.70
2018,02,23,11,18,2.70
2018,02,23,11,19,2.70
2018,02,23,11,20,2.80
2018,02,23,11,21,2.80
2018,02,23,11,22,2.70
2018,02,23,11,23,2.70
2018,02,23,11,24,2.70
2018,02,23,11,25,2.70
2018,02,23,11,26,2.70
2018,02,23,11,27,2.70
2018,02,23,11,28,2.70
2018,02,23,11,29,2.60
2018,02,23,11,30,2.70
2018,02,23,11,31,2.50
2018,02,23,11,32,2.40
2018,02,23,11,33,2.30
2018,02,23,11,34,2.30
2018,02,23,11,35,2.40
2018,02,23,11,36,2.50
2018,02,23,11,37,2.50
2018,02,23,11,38,2.50
2018,02,23,11,39,2.50
2018,02,23,11,40,2.40
2018,02,23,11,41,2.30
2018,02,23,11,42,2.20
2018,02,23,11,43,2.30
2018,02,23,11,44,2.40
2018,02,23,11,45,2.40
2018,02,23,11,46,2.30
2018,02,23,11,47,2.30
2018,02,23,11,48,2.30
2018,02,23,11,49,2.30
2018,02,23,11,50,2.30
2018,02,23,11,51,2.30
2018,02,23,11,52,2.30
2018,02,23,11,53,2.20
2018,02,23,11,54,2.10
2018,02,23,11,55,2.00
2018,02,23,11,56,2.00
2018,02,23,11,57,2.00
2018,02,23,11,58,2.00
2018,02,23,11,59,2.20
2018,02,23,12,00,2.20
2018,02,23,12,01,2.20
2018,02,23,12,02,2.10
2018,02,23,12,03,2.00
2018,02,23,12,04,1.90
2018,02,23,12,05,1.90
2018,02,23,12,06,1.90
2018,02,23,12,07,1.90
2018,02,23,12,08,2.00
2018,02,23,12,09,2.10
2018,02,23,12,10,2.10
2018,02,23,12,11,2.10
2018,02,23,12,12,2.10
2018,02,23,12,13,2.10
2018,02,23,12,14,2.10
2018,02,23,12,15,2.10
2018,02,23,12,16,2.10
2018,02,23,12,17,2.10
2018,02,23,12,18,2.20
2018,02,23,12,19,2.10
2018,02,23,12,20,2.10
2018,02,23,12,21,2.10
2018,02,23,12,22,2.00
2018,02,23,12,23,2.00
2018,02,23,12,24,2.00
2018,02,23,12,25,2.10
2018,02,23,12,26,2.10
2018,02,23,12,27,2.10
2018,02,23,12,28,2.10
2018,02,23,12,29,2.20
2018,02,23,12,30,2.20
2018,02,23,12,31,2.10
2018,02,23,12,32,2.10
2018,02,23,12,33,2.10
2018,02,23,12,34,2.00
2018,02,23,12,35,2.00
2018,02,23,12,36,2.10
2018,02,23,12,37,2.10
2018,02,23,12,38,2.20
2018,02,23,12,39,2.20
2018,02,23,12,40,2.20
2018,02,23,12,41,2.30
2018,02,23,12,42,2.30
2018,02,23,12,43,2.30
2018,02,23,12,44,2.40
2018,02,23,12,45,2.40
2018,02,23,12,46,2.30
2018,02,23,12,47,2.20
2018,02,23,12,48,2.20
2018,02,23,12,49,2.30
2018,02,23,12,50,2.30
2018,02,23,12,51,2.30
2018,02,23,12,52,2.30
2018,02,23,12,53,2.40
2018,02,23,12,54,2.40
2018,02,23,12,55,2.50
2018,02,23,12,56,2.40
2018,02,23,12,57,2.40
2018,02,23,12,58,2.50
2018,02,23,12,59,2.50
2018,02,23,13,00,2.50
2018,02,23,13,01,2.50
2018,02,23,13,02,2.60
2018,02,23,13,03,2.60
2018,02,23,13,04,2.60
2018,02,23,13,05,2.60
2018,02,23,13,06,2.70
2018,02,23,13,07,2.70
2018,02,23,13,08,2.70
2018,02,23,13,09,2.70
2018,02,23,13,10,2.70
2018,02,23,13,11,2.70
2018,02,23,13,12,2.70
2018,02,23,13,13,2.80
2018,02,23,13,14,2.80
2018,02,23,13,15,2.80
2018,02,23,13,16,2.80
2018,02,23,13,17,2.80
2018,02,23,13,18,2.90
2018,02,23,13,19,2.90
2018,02,23,13,20,2.90
2018,02,23,13,21,2.90
2018,02,23,13,22,2.90
2018,02,23,13,23,2.90
2018,02,23,13,24,2.90
2018,02,23,13,25,2.90
2018,02,23,13,26,2.90
2018,02,23,13,27,2.90
2018,02,23,13,28,2.90
2018,02,23,13,29,2.90
2018,02,23,13,30,3.10
2018,02,23,13,31,3.10
2018,02,23,13,32,3.10
2018,02,23,13,33,3.10
2018,02,23,13,34,3.00
2018,02,23,13,35,2.90
2018,02,23,13,36,2.90
2018,02,23,13,37,3.10
2018,02,23,13,38,3.10
2018,02,23,13,39,3.10
2018,02,23,13,40,3.10
2018,02,23,13,41,3.10
2018,02,23,13,42,3.10
2018,02,23,13,43,3.10
2018,02,23,13,44,2.90
2018,02,23,13,45,2.90
2018,02,23,13,46,2.90
2018,02,23,13,47,2.90
2018,02,23,13,48,3.00
2018,02,23,13,49,3.10
2018,02,23,13,50,3.10
2018,02,23,13,51,3.10
2018,02,23,13,52,3.10
2018,02,23,13,53,3.10
2018,02,23,13,54,3.10
2018,02,23,13,55,3.10
2018,02,23,13,56,3.10
2018,02,23,13,57,3.10
2018,02,23,13,58,3.10
2018,02,23,13,59,3.10
2018,02,23,14,00,3.10
2018,02,23,14,01,3.10
2018,02,23,14,02,3.10
2018,02,23,14,03,3.10
2018,02,23,14,04,3.10
2018,02,23,14,05,3.10
2018,02,23,14,06,3.10
2018,02,23,14,07,3.10
2018,02,23,14,08,3.10
2018,02,23,14,09,3.20
2018,02,23,14,10,3.20
2018,02,23,14,11,3.30
2018,02,23,14,12,3.30
2018,02,23,14,13,3.20
2018,02,23,14,14,3.20
2018,02,23,14,15,3.20
2018,02,23,14,16,3.20
2018,02,23,14,17,3.20
2018,02,23,14,18,3.30
2018,02,23,14,19,3.30
2018,02,23,14,20,3.30
2018,02,23,14,21,3.30
2018,02,23,14,22,3.30
2018,02,23,14,23,3.30
2018,02,23,14,24,3.30
2018,02,23,14,25,3.30
2018,02,23,14,26,3.30
2018,02,23,14,27,3.30
2018,02,23,14,28,3.30
2018,02,23,14,29,3.40
2018,02,23,14,30,3.40
2018,02,23,14,31,3.40
2018,02,23,14,32,3.30
2018,02,23,14,33,3.30
2018,02,23,14,34,3.30
2018,02,23,14,35,3.30
2018,02,23,14,36,3.30
2018,02,23,14,37,3.30
2018,02,23,14,38,3.30
2018,02,23,14,39,3.30
2018,02,23,14,40,3.40
2018,02,23,14,41,3.40
2018,02,23,14,42,3.40
2018,02,23,14,43,3.50
2018,02,23,14,44,3.40
2018,02,23,14,45,3.40
2018,02,23,14,46,3.50
2018,02,23,14,47,3.50
2018,02,23,14,48,3.50
2018,02,23,14,49,3.40
2018,02,23,14,50,3.40
2018,02,23,14,51,3.40
2018,02,23,14,52,3.50
2018,02,23,14,53,3.50
2018,02,23,14,54,3.70
2018,02,23,14,55,3.70
2018,02,23,14,56,3.70
2018,02,23,14,57,3.70
2018,02,23,14,58,3.60
2018,02,23,14,59,3.60
2018,02,23,15,00,3.60
2018,02,23,15,01,3.60
2018,02,23,15,02,3.60
2018,02,23,15,03,3.60
2018,02,23,15,04,3.70
2018,02,23,15,05,3.80
2018,02,23,15,06,3.80
2018,02,23,15,07,3.80
2018,02,23,15,08,3.70
2018,02,23,15,09,3.70
2018,02,23,15,10,3.80
2018,02,23,15,11,3.80
2018,02,23,15,12,3.80
2018,02,23,15,13,3.80
2018,02,23,15,14,3.80
2018,02,23,15,15,3.80
2018,02,23,15,16,3.80
2018,02,23,15,17,3.90
2018,02,23,15,18,4.00
2018,02,23,15,19,4.00
2018,02,23,15,20,4.00
2018,02,23,15,21,4.10
2018,02,23,15,22,4.10
2018,02,23,15,23,4.10
2018,02,23,15,24,4.10
2018,02,23,15,25,4.10
2018,02,23,15,26,4.10
2018,02,23,15,27,4.10
2018,02,23,15,28,4.20
2018,02,23,15,29,4.20
2018,02,23,15,30,4.20
2018,02,23,15,31,4.20
2018,02,23,15,32,4.20
2018,02,23,15,33,4.20
2018,02,23,15,34,4.30
2018,02,23,15,35,4.30
2018,02,23,15,36,4.40
2018,02,23,15,37,4.40
2018,02,23,15,38,4.40
2018,02,23,15,39,4.50
2018,02,23,15,40,4.50
2018,02,23,15,41,4.50
2018,02,23,15,42,4.50
2018,02,23,15,43,4.60
2018,02,23,15,44,4.60
2018,02,23,15,45,4.50
2018,02,23,15,46,4.50
2018,02,23,15,47,4.40
2018,02,23,15,48,4.50
2018,02,23,15,49,4.50
2018,02,23,15,50,4.50
2018,02,23,15,51,4.50
2018,02,23,15,52,4.50
2018,02,23,15,53,4.50
2018,02,23,15,54,4.50
2018,02,23,15,55,4.50
2018,02,23,15,56,4.30
2018,02,23,15,57,4.20
2018,02,23,15,58,4.20
2018,02,23,15,59,4.20
2018,02,23,16,00,4.20
2018,02,23,16,01,4.20
2018,02,23,16,02,4.20
2018,02,23,16,03,4.20
2018,02,23,16,04,4.20
2018,02,23,16,05,4.20
2018,02,23,16,06,4.20
2018,02,23,16,07,4.20
2018,02,23,16,08,4.20
2018,02,23,16,09,4.20
2018,02,23,16,10,4.20
2018,02,23,16,11,4.20
2018,02,23,16,12,4.20
2018,02,23,16,13,4.20
2018,02,23,16,14,4.20
2018,02,23,16,15,4.20
2018,02,23,16,16,4.30
2018,02,23,16,17,4.30
2018,02,23,16,18,4.20
2018,02,23,16,19,4.20
2018,02,23,16,20,4.20
2018,02,23,16,21,4.20
2018,02,23,16,22,4.20
2018,02,23,16,23,4.20
2018,02,23,16,24,4.20
2018,02,23,16,25,4.20
2018,02,23,16,26,4.20
2018,02,23,16,27,4.20
2018,02,23,16,28,4.30
2018,02,23,16,29,4.20
2018,02,23,16,30,4.20
2018,02,23,16,31,4.20
2018,02,23,16,32,4.10
2018,02,23,16,33,4.10
2018,02,23,16,34,4.10
2018,02,23,16,35,4.10
2018,02,23,16,36,4.20
2018,02,23,16,37,4.20
2018,02,23,16,38,4.10
2018,02,23,16,39,4.10
2018,02,23,16,40,4.10
2018,02,23,16,41,4.20
2018,02,23,16,42,4.20
2018,02,23,16,43,4.10
2018,02,23,16,44,4.00
2018,02,23,16,45,4.00
2018,02,23,16,46,4.00
2018,02,23,16,47,4.00
2018,02,23,16,48,4.00
2018,02,23,16,49,4.00
2018,02,23,16,50,4.00
2018,02,23,16,51,4.00
2018,02,23,16,52,4.00
2018,02,23,16,53,4.10
2018,02,23,16,54,4.00
2018,02,23,16,55,4.00
2018,02,23,16,56,3.90
2018,02,23,16,57,3.80
2018,02,23,16,58,3.80
2018,02,23,16,59,3.80
2018,02,23,17,00,3.80
2018,02,23,17,01,3.70
2018,02,23,17,02,3.70
2018,02,23,17,03,3.70
2018,02,23,17,04,3.60
2018,02,23,17,05,3.60
2018,02,23,17,06,3.60
2018,02,23,17,07,3.60
2018,02,23,17,08,3.60
2018,02,23,17,09,3.50
2018,02,23,17,10,3.50
2018,02,23,17,11,3.50
2018,02,23,17,12,3.50
2018,02,23,17,13,3.60
2018,02,23,17,14,3.60
2018,02,23,17,15,3.60
2018,02,23,17,16,3.50
2018,02,23,17,17,3.50
2018,02,23,17,18,3.50
2018,02,23,17,19,3.50
2018,02,23,17,20,3.50
2018,02,23,17,21,3.40
2018,02,23,17,22,3.50
2018,02,23,17,23,3.50
2018,02,23,17,24,3.50
2018,02,23,17,25,3.50
2018,02,23,17,26,3.50
2018,02,23,17,27,3.50
2018,02,23,17,28,3.50
2018,02,23,17,29,3.50
2018,02,23,17,30,3.50
2018,02,23,17,31,3.50
2018,02,23,17,32,3.50
2018,02,23,17,33,3.40
2018,02,23,17,34,3.40
2018,02,23,17,35,3.40
2018,02,23,17,36,3.40
2018,02,23,17,37,3.40
2018,02,23,17,38,3.30
2018,02,23,17,39,3.30
2018,02,23,17,40,3.30
2018,02,23,17,41,3.30
2018,02,23,17,42,3.30
2018,02,23,17,43,3.30
2018,02,23,17,44,3.30
2018,02,23,17,45,3.30
2018,02,23,17,46,3.30
2018,02,23,17,47,3.30
2018,02,23,17,48,3.30
2018,02,23,17,49,3.30
2018,02,23,17,50,3.30
2018,02,23,17,51,3.30
2018,02,23,17,52,3.30